Regional Weather Roundup
Issued by NWS Newport/Morehead, NC

Current Version | Previous Version | Graphics & Text | Print | Product List | Glossary Off
Versions: 1 2 3 4 5 6 7 8 9 10 11 12 13 14 15 16 17 18 19 20 21 22 23 24 25 26 27 28 29 30 31 32 33 34 35 36 37 38 39 40 41 42 43 44 45 46 47 48 49 50

000
ASUS42 KMHX 011413
RWRMHX
WEATHER ROUNDUP FOR EASTERN NORTH CAROLINA
NATIONAL WEATHER SERVICE NEWPORT/MOREHEAD CITY NC
1000 AM EDT SAT AUG 01 2015

NOTE: "FAIR" INDICATES FEW OR NO CLOUDS BELOW 12,000 FEET
WITH NO SIGNIFICANT WEATHER AND/OR OBSTRUCTIONS TO VISIBILITY

NCZ015>017-031-032-045>047-102-103-011500-
NORTH COAST

CITY           SKY/WX    TMP DP  RH WIND       PRES   REMARKS
EDENTON          N/A     82  72  72 SW3       29.93S
ELIZABETH CITY SUNNY     83  74  74 SW6       29.93S
KITTY HAWK     SUNNY     89  67  48 SE9       29.91S
MANTEO         PTSUNNY   82  75  78 S10       29.93R

$$

NCZ045>047-081-094-103-104-011500-
CENTRAL COAST

CITY           SKY/WX    TMP DP  RH WIND       PRES   REMARKS
FRISCO         CLOUDY    78  72  81 SE13      29.93S
SWANQUARTER      N/A     82 N/A N/A SW3       29.88S

$$

NCZ095-097-098-100-101-011500-
SOUTHERN COAST

CITY           SKY/WX    TMP DP  RH WIND       PRES   REMARKS
BEAUFORT       PTSUNNY   80  75  84 S5        29.92S
CEDAR ISLAND     N/A     81 N/A N/A S2G10     29.97R
JACKSONVILLE   MOSUNNY   81  72  74 SE3       29.93S
PINEY ISLAND   PTSUNNY  N/A N/A N/A SW7       29.93R
WILMINGTON     PTSUNNY   81  75  82 VRB3      29.93R


$$

NCZ011>013-027>030-043-044-078>080-089-090>093-098-011500-
COASTAL PLAIN

CITY           SKY/WX    TMP DP  RH WIND       PRES   REMARKS
AHOSKIE        SUNNY     82  70  68 CALM      29.93S
CLINTON        SUNNY     82  71  68 NE5       29.95S
ELIZABETHTOWN  SUNNY     83  70  65 CALM      29.94F
GOLDSBORO      SUNNY     81  74  79 VRB1      29.93R
GREENVILLE     SUNNY     82  75  78 SE3       29.95S
HAVELOCK       CLOUDY    80  77  90 SW6       29.94R
KENANSVILLE    SUNNY    N/A N/A N/A N5        29.95S
KINSTON        SUNNY     82  73  74 CALM      29.95R
NEW BERN       MOSUNNY   83  75  77 W3        29.94R
RICHLANDS      MOSUNNY   81  70  69 CALM      29.94S
ROCKY MOUNT    SUNNY     85  65  51 CALM      29.94S
WASHINGTON     SUNNY     81  76  84 CALM      29.94R
WHITEVILLE     SUNNY     83  71  67 NE5       29.93S

$$

AMZ130-135-150-152-154-156-158-170-250-252-270-ANZ085-086-088-633-658-670-011500-
MARINE OBSERVATIONS

STATION/POSITION TIME  TEMP    WIND        PRES    WAVE   SWELL
                       AIR SEA DIR/SP/G            HT/PER HT/PER
                 (UTC) (F)     (DEG/KT/KT) (MB)    (FT/S) (FT/S)
CHESAPEAKE LIGHT 1400   80     220/  7/  8 1013.7
64 E VA BEACH    1350   81 81  200/  8/  8 1013.0    3/ 8   3/ 8
DUCK             1300   79 77   50/  3/  4 1012.4
2 E DUCK         1311      77                N/A     2/ 9
OREGON INLET     1300   80 81  150/  8/ 12 1013.1
13E OREGON INLT  1400      81                N/A     3/ 8
HATTERAS CG      1300   78 80  120/ 11/ 16 1012.9
DIAMOND BUOY     1350   76 84  130/ 12/ 14 1013.5    3/ 7   3/ 7
CAPE LOOKOUT     1400   79     170/  8/  9 1013.1
BEAUFORT LAB     1300   79 82  180/  6/  7 1012.3
30 SE NEW RVR IN NOT AVBL
27 SE WRIGHTSVLE 1300   76 82  200/  4/  6   N/A
5 SE WRIGHTSVLE  1308   79 83   70/  4/  6 1013.5
225 S CAPE HAT   1350   83 81  220/ 14/ 16 1016.0    6/ 7   5/ 7
41 SE CHARLESTON 1350   81 84   30/  4/  6 1013.3    4/ 7   3/ 7

$$



USA.gov is the U.S. government's official web portal to all federal, state and local government web resources and services.